Location: *
(38.9555°S, 57.3572°E)
Time: 01:54:17
(UTC+00:00)

SMAP - Pass Details

Date: 15 July 2020
Orbit: 681 x 683 km, 98.1° (Epoch: 06 August)

Event Time Altitude Azimuth Distance (km) Brightness Sun altitude
Exits shadow 14:44:30 - 172° (S) 2,943 6.1 -18.5°
Reaches altitude 10° 14:46:26 10° 174° (S) 2,161 5.4 -18.8°
Maximum altitude 14:51:06 63° 254° (WSW) 774 3.5 -19.7°
Drops below altitude 10° 14:55:43 10° 334° (NNW) 2,132 6.1 -20.6°
Sets 14:57:57 0° 337° (NNW) 3,040 6.9 -21.0°
